Regional Weather Roundup
Issued by NWS Midland/Odessa, TX

Skip options and go directly to product.
Home | Oldest Version | Previous Version | Current Version | All | Graphics & Text | Save Text | Print | Product List | Glossary On

Skip product version selection by date and time.   
359
ASUS44 KMAF 242010
RWRMAF
MIDLAND AREA WEATHER ROUNDUP
NATIONAL WEATHER SERVICE MIDLAND TX
300 PM CDT SAT SEP 24 2016

...IN SOUTHWEST TEXAS AND SOUTHEAST NEW MEXICO...

CITY           SKY/WX    TMP DP  RH WIND       PRES   REMARKS
ALPINE         CLOUDY    72  59  63 E14       30.14S THUNDER
ANDREWS        NOT AVBL
ARTESIA        SUNNY     81  52  36 SE9       29.98F
BIG SPRING     MOSUNNY   91  64  40 S14G21    29.94F
CARLSBAD       CLOUDY    83  50  31 NW10      29.96F
DRYDEN           N/A     86  69  56 E6        29.92F
FORT STOCKTON  MOSUNNY   86  48  26 S3        29.97F
GUAD PASS      MOSUNNY   78  47  33 W24G35    30.12F
HOBBS          MOSUNNY   81  50  34 VRB5      30.01F
MARFA          MOSUNNY  N/A N/A N/A SW7       30.09F
MIDLAND AIRPK  CLOUDY    87  53  30 SW5       29.95F
MIDLAND INTL   CLOUDY    89  54  30 W9        29.94F
ODESSA         CLOUDY    86  56  35 NW7       29.97F
PECOS          CLOUDY    86  52  30 CALM      29.95F
PRESIDIO       RAIN      86  53  32 SW13      29.97F
SEMINOLE       PTSUNNY   79  61  53 SW5       30.00F
SNYDER           N/A     84  69  59 CALM      29.94F
WINK           CLOUDY    83  52  34 SW5       29.96F
$$
...OTHER STATIONS IN TEXAS...

CITY           SKY/WX    TMP DP  RH WIND       PRES   REMARKS
ABILENE        PTSUNNY   88  68  51 S15G26    29.92F
AMARILLO       SUNNY     82  41  23 S9G20     29.97F
AUSTIN         PTSUNNY   91  73  55 S8        29.91F
BROWNSVILLE    MOSUNNY   96  73  47 SE20G26   29.90F HX 105
CORPUS CHRISTI CLOUDY    91  77  63 SE18G24   29.90F HX 104
DALLAS FTW     CLOUDY    89  72  56 SE12      29.94F
DEL RIO        SUNNY     90  71  53 SE13G21   29.87F
EL PASO        MOSUNNY   80  46  30 W13G24    30.04F
HOUSTON INT    PTSUNNY   85  74  69 S13G20    29.98S THUNDER
LUBBOCK        PTSUNNY   76  64  66 S3        29.97F
SAN ANGELO     MOSUNNY   92  67  43 S14G23    29.91F
SAN ANTONIO    PTSUNNY   93  72  50 SE14      29.93F HX 101
WACO           MOSUNNY   94  73  50 S10       29.93F HX 103
WICHITA FALLS  NOT AVBL
$$
...OTHER LOCATIONS IN NEW MEXICO...

CITY           SKY/WX    TMP DP  RH WIND       PRES   REMARKS
ALAMAGORDO     SUNNY     81  39  22 SW10      30.06F
ALBUQUERQUE    MOSUNNY   69  27  20 VRB7      30.14F
CANNON AFB     SUNNY     79  37  22 W14       30.02F
CLOVIS         SUNNY     79  43  27 SW16      30.02F
HOLLOMAN AFB   SUNNY     79  40  25 NW9       30.03F
ROSWELL        SUNNY     82  48  30 S7        29.98F
RUIDOSO        SUNNY     68  34  28 S6        30.19F
SANTA FE       SUNNY     63  30  28 NE8G18    30.16F
TRUTH OR CONSE SUNNY     76  37  24 S10       30.07F
TUCUMCARI      SUNNY     83  17   8 SW20G26   29.97F
$$

USA.gov is the U.S. government's official web portal to all federal, state and local government web resources and services.